Location: Newport
(44.6370°N, 124.0520°W)
Time: 13:27:54
(UTC-07:00)

Tiangong 2 - Pass Details

Date: 14 October 2017
Orbit: 388 x 392 km, 42.8° (Epoch: 18 October)

Event Time Altitude Azimuth Distance (km) Brightness Sun altitude
Exits shadow 05:03:10 19° 99° (E) 1,013 3.8 -26.8°
Drops below altitude 10° 05:04:14 10° 92° (E) 1,422 4.8 -26.6°
Sets 05:06:21 0° 87° (E) 2,279 6.2 -26.3°
